Location: *
(2.5500°S, 65.9667°W)
Time: 17:23:01
(UTC+00:00)

A-11 Canister half - Pass Details

Date: 15 April 2024
Orbit: 1525 x 1683 km, 47.3° (Epoch: 21 May)

Event Time Altitude Azimuth Distance (km) Brightness Sun altitude
Rises 22:58:43 0° 272° (W) 4,758 13.8 -9.1°
Reaches altitude 10° 23:04:41 10° 244° (WSW) 3,740 11.9 -10.5°
Maximum altitude 23:07:58 12° 223° (SW) 3,557 11.4 -11.3°
Drops below altitude 10° 23:11:15 10° 202° (SSW) 3,712 11.2 -12.1°
Sets 23:17:12 0° 173° (S) 4,680 11.4 -13.6°
